This demonstration page uses our WeatherBlox Daily Observations layout. Learn more.

Left ArrowRight Arrow

Hourly Observations for February 17, 2019

Temp ( °F °C ) Dew Point ( °F °C ) Humidity (%) Winds ( mph kmh ) Pressure ( in mb ) Visibility ( mi km ) Precip ( " mm )
12:15 am 00:15 Clear 32 0 25 -4 75 75 N 6 9 30.09 1019 10 16.0934 0 0
12:35 am 00:35 Clear 32 0 25 -4 75 75 N 7 11 30.09 1019 10 16.0934 0 0
12:55 am 00:55 Clear 32 0 25 -4 75 75 N 6 9 30.09 1019 10 16.0934 0 0
1:15 am 01:15 Clear 32 0 25 -4 75 75 N 6 9 30.1 1019 10 16.0934 0 0
1:35 am 01:35 Clear 32 0 25 -4 75 75 N 7 11 30.1 1019 10 16.0934 0 0
1:55 am 01:55 Clear 32 0 25 -4 75 75 N 6 9 30.11 1020 10 16.0934 0 0
2:15 am 02:15 Clear 32 0 25 -4 75 75 N 6 9 30.11 1020 10 16.0934 0 0
2:35 am 02:35 Clear 32 0 25 -4 75 75 N 5 7 30.1 1019 10 16.0934 0 0
2:55 am 02:55 Clear 32 0 25 -4 75 75 N 5 7 30.1 1019 10 16.0934 0 0
3:15 am 03:15 Clear 32 0 25 -4 75 75 N 3 6 30.09 1019 10 16.0934 0 0
3:35 am 03:35 Clear 30 -1 25 -4 80 80 Calm 30.08 1019 10 16.0934 0 0
3:55 am 03:55 Clear 30 -1 25 -4 80 80 Calm 30.08 1019 10 16.0934 0 0
4:15 am 04:15 Clear 32 0 25 -4 75 75 NE 5 7 30.07 1018 10 16.0934 0 0
4:35 am 04:35 Clear 32 0 25 -4 75 75 NNE 3 6 30.08 1019 10 16.0934 0 0
4:55 am 04:55 Clear 28 -2 23 -5 80 80 NNE 3 6 30.12 1020 10 16.0934 0 0
5:15 am 05:15 Clear 30 -1 25 -4 80 80 N 3 6 30.11 1020 10 16.0934 0 0
5:35 am 05:35 Clear 30 -1 25 -4 80 80 N 3 6 30.12 1020 10 16.0934 0 0
5:55 am 05:55 Clear 30 -1 25 -4 80 80 NNE 3 6 30.12 1020 10 16.0934 0 0
6:15 am 06:15 Clear 30 -1 25 -4 80 80 NNE 7 11 30.12 1020 10 16.0934 0 0
6:35 am 06:35 Clear 30 -1 25 -4 80 80 N 3 6 30.14 1021 10 16.0934 0 0
6:55 am 06:55 Clear 28 -2 23 -5 80 80 Calm 30.16 1021 10 16.0934 0 0
7:15 am 07:15 Sunny 28 -2 23 -5 80 80 Calm 30.17 1022 10 16.0934 0 0
7:35 am 07:35 Sunny 30 -1 23 -5 75 75 NE 5 7 30.15 1021 10 16.0934 0 0
7:55 am 07:55 Sunny 30 -1 25 -4 80 80 NE 3 6 30.15 1021 10 16.0934 0 0
8:15 am 08:15 Sunny 32 0 25 -4 75 75 ENE 6 9 30.15 1021 10 16.0934 0 0
8:35 am 08:35 Sunny 32 0 25 -4 75 75 ENE 8 13 30.15 1021 10 16.0934 0 0
8:55 am 08:55 Sunny 32 0 23 -5 69 69 ESE 5 7 30.16 1021 10 16.0934 0 0
9:15 am 09:15 Sunny 34 1 25 -4 70 70 E 7 11 30.15 1021 10 16.0934 0 0
9:35 am 09:35 Sunny 34 1 23 -5 65 65 SE 9 15 30.14 1021 10 16.0934 0 0
9:55 am 09:55 Sunny 34 1 23 -5 65 65 E 8 13 30.09 1019 10 16.0934 0 0
10:15 am 10:15 Mostly Cloudy 34 1 25 -4 70 70 S 3 6 30.17 1022 10 16.0934 0 0
10:35 am 10:35 Cloudy 36 2 25 -4 65 65 SSW 5 7 30.2 1023 10 16.0934 0 0
10:55 am 10:55 Cloudy 36 2 25 -4 65 65 SSE 5 7 30.18 1022 10 16.0934 0 0
11:15 am 11:15 Cloudy 36 2 25 -4 65 65 SE 7 11 30.12 1020 10 16.0934 0 0
11:35 am 11:35 Mostly Cloudy 36 2 25 -4 65 65 SSE 7 11 30.13 1020 10 16.0934 0 0
11:55 am 11:55 Mostly Cloudy 36 2 25 -4 65 65 Calm 30.14 1021 10 16.0934 0 0
12:15 pm 12:15 Cloudy 36 2 27 -3 70 70 S 6 9 30.14 1021 10 16.0934 0 0
12:35 pm 12:35 Cloudy 36 2 27 -3 70 70 W 5 7 30.16 1021 10 16.0934 0 0
12:55 pm 12:55 Cloudy 37 3 27 -3 65 65 S 5 7 30.11 1020 10 16.0934 0 0
1:15 pm 13:15 Cloudy 37 3 27 -3 65 65 SSE 9 15 30.08 1019 10 16.0934 0 0
1:35 pm 13:35 Mostly Cloudy 37 3 27 -3 65 65 SSE 6 9 30.08 1019 10 16.0934 0 0
1:55 pm 13:55 Partly Cloudy 39 4 27 -3 61 61 SSE 6 9 30.08 1018 10 16.0934 0 0
2:15 pm 14:15 Mostly Cloudy 39 4 27 -3 61 61 S 10 17 30.06 1018 10 16.0934 0 0
2:35 pm 14:35 Cloudy 39 4 27 -3 61 61 S 10 17 30.05 1017 10 16.0934 0 0
2:55 pm 14:55 Cloudy 39 4 27 -3 61 61 S 10 17 30.04 1017 10 16.0934 0 0
3:15 pm 15:15 Cloudy 41 5 27 -3 57 57 S 15 24 30.01 1016 10 16.0934 0 0
3:35 pm 15:35 Cloudy 39 4 27 -3 61 61 S 9 15 30.02 1016 10 16.0934 0 0
3:55 pm 15:55 Cloudy 39 4 27 -3 61 61 SSW 9 15 30.03 1017 10 16.0934 0 0
4:15 pm 16:15 Cloudy 39 4 27 -3 61 61 S 7 11 30.01 1016 10 16.0934 0 0
4:35 pm 16:35 Cloudy 39 4 27 -3 61 61 S 9 15 30.03 1017 10 16.0934 0 0
4:55 pm 16:55 Cloudy 39 4 30 -1 70 70 S 10 17 30.03 1017 10 16.0934 0 0
5:15 pm 17:15 Cloudy 37 3 30 -1 75 75 S 8 13 30.02 1016 7 11.26538 0 0
5:35 pm 17:35 Cloudy 37 3 32 0 81 81 SSE 6 9 30 1016 10 16.0934 0 0
5:55 pm 17:55 Cloudy 36 2 32 0 87 87 SSE 9 15 29.98 1015 10 16.0934 0 0
6:15 pm 18:15 Cloudy 36 2 32 0 87 87 SSE 10 17 29.99 1016 10 16.0934 0 0
6:35 pm 18:35 Cloudy 36 2 32 0 87 87 S 13 20 30 1016 5 8.0467 0.01 0.254
7:15 pm 19:15 Cloudy 36 2 34 1 93 93 S 10 17 29.97 1015 10 16.0934 0 0
7:35 pm 19:35 Cloudy 36 2 34 1 93 93 S 8 13 29.97 1015 10 16.0934 0 0
7:55 pm 19:55 Cloudy 34 1 34 1 100 100 SSE 6 9 29.96 1015 10 16.0934 0.01 0.254
8:15 pm 20:15 Cloudy 34 1 34 1 100 100 SSE 5 7 29.96 1015 7 11.26538 0 0
8:35 pm 20:35 Cloudy 34 1 34 1 100 100 S 7 11 29.96 1015 5 8.0467 0.01 0.254
8:55 pm 20:55 Cloudy 34 1 34 1 100 100 S 8 13 29.97 1015 4 6.43736 0.03 0.762
9:15 pm 21:15 Cloudy 34 1 34 1 100 100 SSE 5 7 29.96 1015 5 8.0467 0.01 0.254
9:35 pm 21:35 Cloudy 34 1 34 1 100 100 S 13 20 29.95 1014 4 6.43736 0.04 1.016
9:55 pm 21:55 Cloudy 34 1 34 1 100 100 SSE 17 28 29.92 1013 4 6.43736 0.06 1.524
10:15 pm 22:15 Cloudy 34 1 34 1 100 100 SSE 12 19 29.93 1014 5 8.0467 0.01 0.254
10:35 pm 22:35 Cloudy 34 1 34 1 100 100 S 12 19 29.92 1013 7 11.26538 0.01 0.254
10:55 pm 22:55 Cloudy 34 1 34 1 100 100 S 15 24 29.88 1012 7 11.26538 0.02 0.508
11:15 pm 23:15 Cloudy 34 1 34 1 100 100 SSW 8 13 29.88 1012 7 11.26538 0 0
11:35 pm 23:35 Cloudy 34 1 34 1 100 100 W 6 9 29.9 1013 4 6.43736 0.02 0.508
11:55 pm 23:55 Cloudy 34 1 34 1 100 100 S 10 17 29.88 1012 10 16.0934 0.02 0.508

Powered by AerisWeather